Weather History for KDED - March, 2013

Change the Weather History Date:

Monday, March 11, 2013

  Actual Average (KDAB) Record (KDAB)
Temperature  
Mean Temperature 64 °F 64 °F  
Max Temperature 77 °F 74 °F 89 °F (1967)
Min Temperature 50 °F 54 °F 34 °F (1940)
Degree Days  
Heating Degree Days 2 4  
Month to date heating degree days 45  
Since 1 July heating degree days 727  
Cooling Degree Days 0 2  
Month to date cooling degree days 22  
Year to date cooling degree days 87  
Growing Degree Days 14 (Base 50)    
Moisture  
Dew Point 54 °F    
Average Humidity 69    
Maximum Humidity 94    
Minimum Humidity 44    
Precipitation  
Precipitation 0.00 in 0.13 in 3.55 in (1996)
Month to date precipitation 1.44  
Year to date precipitation 6.96  
Sea Level Pressure  
Sea Level Pressure 30.04 in    
Wind  
Wind Speed 3 mph (SSE)    
Max Wind Speed 16 mph    
Max Gust Speed 20 mph    
Visibility 9 miles    
Events      
T = Trace of Precipitation, MM = Missing Value Source: NWS Daily Summary

Daily Weather History Graph

Daily Weather History Graph

Search for Another Location

Airport or City:

Trip Planner

Search our weather history database for the weather conditions in past years. The results will help you decide how hot, cold, wet, or windy it might be!

Date:

Astronomy

Mar. 11, 2013 Rise Set
Actual Time 7:39 AM EDT 7:31 PM EDT
Civil Twilight 7:15 AM EDT 7:54 PM EDT
Nautical Twilight 6:48 AM EDT 8:22 PM EDT
Astronomical Twilight 6:20 AM EDT 8:50 PM EDT
Moon 7:14 AM EDT (3/11) 7:37 PM EDT (3/11)
Length of Visible Light 12h 39m
Length of Day
11h 52m
Waning Crescent, 0% of the Moon is Illuminated
Mar 11
Waning Crescent
Mar 11
New
Mar 19
First Quarter
Mar 27
Full
Apr 3
Last Quarter

Hourly Weather History & Observations

Time (EDT) Temp. Dew Point Humidity Pressure Visibility Wind Dir Wind Speed Gust Speed Precip Events Conditions
12:15 AM 57.2 °F 53.6 °F 88% 30.16 in 9.0 mi Calm Calm - N/A   Clear
12:35 AM 55.4 °F 53.6 °F 94% 30.15 in 9.0 mi Calm Calm - N/A   Clear
12:55 AM 53.6 °F 51.8 °F 94% 30.15 in 8.0 mi Calm Calm - N/A   Clear
1:15 AM 53.6 °F 51.8 °F 94% 30.15 in 9.0 mi Calm Calm - N/A   Clear
1:35 AM 53.6 °F 51.8 °F 94% 30.14 in 9.0 mi Calm Calm - N/A   Clear
1:55 AM 53.6 °F 51.8 °F 94% 30.14 in 7.0 mi Calm Calm - N/A   Clear
2:15 AM 55.4 °F 51.8 °F 88% 30.13 in 9.0 mi Calm Calm - N/A   Clear
2:35 AM 53.6 °F 51.8 °F 94% 30.13 in 10.0 mi Calm Calm - N/A   Clear
2:55 AM 53.6 °F 50.0 °F 88% 30.12 in 9.0 mi Calm Calm - N/A   Clear
3:15 AM 53.6 °F 48.2 °F 82% 30.12 in 9.0 mi Calm Calm - N/A   Clear
3:35 AM 53.6 °F 50.0 °F 88% 30.11 in 10.0 mi Calm Calm - N/A   Clear
3:55 AM 51.8 °F 48.2 °F 88% 30.11 in 9.0 mi Calm Calm - N/A   Clear
4:15 AM 51.8 °F 48.2 °F 88% 30.09 in 9.0 mi Calm Calm - N/A   Clear
4:35 AM 51.8 °F 48.2 °F 88% 30.09 in 9.0 mi Calm Calm - N/A   Clear
4:55 AM 51.8 °F 48.2 °F 88% 30.08 in 9.0 mi Calm Calm - N/A   Clear
5:15 AM 51.8 °F 48.2 °F 88% 30.08 in 10.0 mi Calm Calm - N/A   Clear
5:35 AM 50.0 °F 48.2 °F 94% 30.07 in 10.0 mi Calm Calm - N/A   Clear
5:55 AM 51.8 °F 48.2 °F 88% 30.06 in 8.0 mi Calm Calm - N/A   Clear
6:15 AM 53.6 °F 51.8 °F 94% 30.07 in 9.0 mi Calm Calm - N/A   Clear
6:35 AM 55.4 °F 51.8 °F 88% 30.06 in 9.0 mi Calm Calm - N/A   Clear
6:55 AM 53.6 °F 50.0 °F 88% 30.07 in 9.0 mi Calm Calm - N/A   Clear
7:15 AM 51.8 °F 48.2 °F 88% 30.08 in 8.0 mi Calm Calm - N/A   Clear
7:35 AM 51.8 °F 50.0 °F 94% 30.08 in 9.0 mi Calm Calm - N/A   Clear
7:55 AM 53.6 °F 51.8 °F 94% 30.09 in 8.0 mi Calm Calm - N/A   Scattered Clouds
8:15 AM 53.6 °F 51.8 °F 94% 30.08 in 7.0 mi Calm Calm - N/A   Partly Cloudy
8:35 AM 59.0 °F 55.4 °F 88% 30.08 in 7.0 mi Calm Calm - N/A   Clear
8:55 AM 62.6 °F 57.2 °F 82% 30.08 in 9.0 mi Calm Calm - N/A   Clear
9:15 AM 64.4 °F 57.2 °F 77% 30.09 in 8.0 mi Calm Calm - N/A   Clear
9:35 AM 66.2 °F 57.2 °F 73% 30.09 in 8.0 mi Calm Calm - N/A   Partly Cloudy
9:55 AM 69.8 °F 57.2 °F 64% 30.09 in 9.0 mi Calm Calm - N/A   Partly Cloudy
10:15 AM 69.8 °F 57.2 °F 64% 30.09 in 10.0 mi SSE 6.9 mph - N/A   Clear
10:35 AM 71.6 °F 55.4 °F 57% 30.08 in 10.0 mi SE 10.4 mph 17.3 mph N/A   Clear
10:55 AM 73.4 °F 55.4 °F 53% 30.08 in 8.0 mi SSE 11.5 mph 17.3 mph N/A   Clear
11:15 AM 73.4 °F 55.4 °F 53% 30.08 in 9.0 mi SE 10.4 mph 17.3 mph N/A   Scattered Clouds
11:35 AM 73.4 °F 55.4 °F 53% 30.08 in 8.0 mi South 13.8 mph - N/A   Scattered Clouds
11:55 AM 73.4 °F 55.4 °F 53% 30.09 in 10.0 mi SE 9.2 mph - N/A   Mostly Cloudy
12:15 PM 73.4 °F 55.4 °F 53% 30.08 in 9.0 mi SSE 6.9 mph - N/A   Mostly Cloudy
12:35 PM 75.2 °F 53.6 °F 47% 30.07 in 8.0 mi SSE 11.5 mph 17.3 mph N/A   Mostly Cloudy
12:55 PM 75.2 °F 53.6 °F 47% 30.07 in 10.0 mi Calm Calm - N/A   Mostly Cloudy
1:15 PM 75.2 °F 53.6 °F 47% 30.07 in 8.0 mi South 4.6 mph - N/A   Mostly Cloudy
1:35 PM 75.2 °F 53.6 °F 47% 30.06 in 9.0 mi SSW 10.4 mph - N/A   Mostly Cloudy
1:55 PM 75.2 °F 53.6 °F 47% 30.05 in 10.0 mi South 8.1 mph - N/A   Mostly Cloudy
2:15 PM 77.0 °F 53.6 °F 44% 30.04 in 9.0 mi SSW 16.1 mph 19.6 mph N/A   Scattered Clouds
2:35 PM 77.0 °F 53.6 °F 44% 30.02 in 9.0 mi South 6.9 mph - N/A   Scattered Clouds
2:55 PM 77.0 °F 53.6 °F 44% 30.01 in 9.0 mi South 8.1 mph 18.4 mph N/A   Mostly Cloudy
3:15 PM 77.0 °F 55.4 °F 47% 30.01 in 10.0 mi South 10.4 mph 17.3 mph N/A   Mostly Cloudy
3:35 PM 75.2 °F 53.6 °F 47% 30.00 in 8.0 mi South 5.8 mph - N/A   Mostly Cloudy
3:55 PM 77.0 °F 53.6 °F 44% 29.98 in 9.0 mi SSE 11.5 mph 17.3 mph N/A   Mostly Cloudy
4:15 PM 77.0 °F 53.6 °F 44% 29.98 in 9.0 mi South 11.5 mph - N/A   Mostly Cloudy
4:35 PM 77.0 °F 53.6 °F 44% 29.97 in 10.0 mi SSE 3.5 mph - N/A   Scattered Clouds
4:55 PM 77.0 °F 53.6 °F 44% 29.96 in 8.0 mi South 10.4 mph 16.1 mph N/A   Mostly Cloudy
5:15 PM 77.0 °F 55.4 °F 47% 29.96 in 10.0 mi SSE 8.1 mph - N/A   Scattered Clouds
5:35 PM 75.2 °F 55.4 °F 50% 29.96 in 10.0 mi Calm Calm - N/A   Scattered Clouds
5:55 PM 75.2 °F 55.4 °F 50% 29.96 in 9.0 mi Calm Calm - N/A   Mostly Cloudy
6:15 PM 73.4 °F 55.4 °F 53% 29.96 in 10.0 mi SE 6.9 mph - N/A   Scattered Clouds
6:35 PM 73.4 °F 55.4 °F 53% 29.96 in 10.0 mi SE 9.2 mph - N/A   Partly Cloudy
6:55 PM 71.6 °F 55.4 °F 57% 29.96 in 9.0 mi SE 8.1 mph - N/A   Clear
7:15 PM 71.6 °F 57.2 °F 60% 29.97 in 8.0 mi SE 8.1 mph - N/A   Scattered Clouds
7:35 PM 71.6 °F 57.2 °F 60% 29.96 in 8.0 mi SE 3.5 mph - N/A   Mostly Cloudy
7:55 PM 69.8 °F 57.2 °F 64% 29.96 in 10.0 mi SE 6.9 mph - N/A   Mostly Cloudy
8:15 PM 69.8 °F 57.2 °F 64% 29.96 in 9.0 mi Calm Calm - N/A   Partly Cloudy
8:35 PM 69.8 °F 57.2 °F 64% 29.95 in 8.0 mi SE 6.9 mph - N/A   Clear
8:55 PM 69.8 °F 59.0 °F 68% 29.96 in 9.0 mi SE 9.2 mph - N/A   Partly Cloudy
9:15 PM 69.8 °F 59.0 °F 68% 29.96 in 9.0 mi SE 9.2 mph - N/A   Partly Cloudy
9:35 PM 69.8 °F 59.0 °F 68% 29.97 in 8.0 mi SE 10.4 mph 16.1 mph N/A   Clear
9:55 PM 69.8 °F 60.8 °F 73% 29.98 in 9.0 mi SE 5.8 mph 16.1 mph N/A   Clear
10:15 PM 69.8 °F 60.8 °F 73% 29.98 in 9.0 mi SE 9.2 mph - N/A   Clear
10:35 PM 69.8 °F 60.8 °F 73% 29.99 in 8.0 mi SE 4.6 mph - N/A   Scattered Clouds
10:55 PM 69.8 °F 60.8 °F 73% 29.98 in 9.0 mi SE 8.1 mph - N/A   Scattered Clouds
11:15 PM 69.8 °F 60.8 °F 73% 29.97 in 9.0 mi SE 10.4 mph - N/A   Clear
11:35 PM 69.8 °F 60.8 °F 73% 29.98 in 8.0 mi SSE 9.2 mph - N/A   Clear
11:55 PM 69.8 °F 60.8 °F 73% 29.97 in 8.0 mi SSE 8.1 mph - N/A   Clear